Time,TemperatureF,DewpointF,PressureIn,WindDirection,WindDirectionDegrees,WindSpeedMPH,WindSpeedGustMPH,Humidity,HourlyPrecipIn,Conditions,Clouds,dailyrainin,SoftwareType,DateUTC
2013-08-10 00:01:00,72.0,59.0,-100.00,NW,320,7.0,14.0,61,0.00,,,0.00,,2013-08-10 00:01:00,
2013-08-10 00:11:00,72.0,59.0,-100.00,NW,310,7.0,12.0,61,0.00,,,0.00,,2013-08-10 00:11:00,
2013-08-10 01:01:00,69.0,59.0,-100.00,North,350,4.0,6.0,71,0.00,,,0.00,,2013-08-10 01:01:00,
2013-08-10 01:11:00,68.0,59.0,-100.00,NNW,345,5.0,6.0,74,0.00,,,0.00,,2013-08-10 01:11:00,
2013-08-10 02:11:00,64.0,59.0,-100.00,NNW,335,4.0,4.0,82,0.00,,,0.00,,2013-08-10 02:11:00,
2013-08-10 03:01:00,62.0,57.0,-100.00,NNW,330,2.0,3.0,85,0.00,,,0.00,,2013-08-10 03:01:00,
2013-08-10 03:11:00,62.0,57.0,-100.00,NW,305,2.0,4.0,83,0.00,,,0.00,,2013-08-10 03:11:00,
2013-08-10 04:12:00,58.0,57.0,-100.00,West,275,4.0,4.0,99,0.00,,,0.00,,2013-08-10 04:12:00,
2013-08-10 06:02:00,56.0,55.0,-100.00,SSW,195,3.0,4.0,99,0.00,,,0.00,,2013-08-10 06:02:00,
2013-08-10 06:11:00,56.0,55.0,-100.00,SSW,200,4.0,4.0,99,0.00,,,0.00,,2013-08-10 06:11:00,
2013-08-10 07:02:00,54.0,54.0,-100.00,South,185,5.0,6.0,99,0.00,,,0.00,,2013-08-10 07:02:00,
2013-08-10 08:22:00,53.0,52.0,-100.00,WSW,245,2.0,2.0,99,0.00,,,0.00,,2013-08-10 08:22:00,
2013-08-10 08:53:00,52.0,50.0,-100.00,SW,235,1.0,3.0,91,0.00,,,0.00,,2013-08-10 08:53:00,
2013-08-10 09:12:00,52.0,50.0,-100.00,NW,320,0.0,0.0,92,0.00,,,0.00,,2013-08-10 09:12:00,
2013-08-10 10:02:00,53.0,52.0,-100.00,NW,320,0.0,0.0,99,0.00,,,0.00,,2013-08-10 10:02:00,
2013-08-10 10:22:00,52.0,52.0,-100.00,NW,320,0.0,1.0,99,0.00,,,0.00,,2013-08-10 10:22:00,
2013-08-10 10:33:00,53.0,52.0,-100.00,NNW,335,1.0,1.0,99,0.00,,,0.00,,2013-08-10 10:33:00,
2013-08-10 10:44:00,53.0,52.0,-100.00,NNW,335,1.0,1.0,99,0.00,,,0.00,,2013-08-10 10:44:00,
2013-08-10 10:52:00,53.0,52.0,-100.00,NNW,335,1.0,1.0,99,0.00,,,0.00,,2013-08-10 10:52:00,
2013-08-10 11:33:00,52.0,52.0,-100.00,South,190,5.0,6.0,99,0.00,,,0.00,,2013-08-10 11:33:00,
2013-08-10 11:43:00,53.0,52.0,-100.00,SSW,200,1.0,6.0,99,0.00,,,0.00,,2013-08-10 11:43:00,
2013-08-10 12:32:00,54.0,54.0,-100.00,SSW,195,1.0,1.0,99,0.00,,,0.00,,2013-08-10 12:32:00,
2013-08-10 12:52:00,55.0,55.0,-100.00,SSW,210,2.0,3.0,99,0.00,,,0.00,,2013-08-10 12:52:00,
2013-08-10 13:01:00,56.0,55.0,-100.00,SW,215,2.0,3.0,99,0.00,,,0.00,,2013-08-10 13:01:00,
2013-08-10 13:11:00,59.0,59.0,-100.00,WSW,240,2.0,4.0,99,0.00,,,0.00,,2013-08-10 13:11:00,
2013-08-10 13:21:00,60.0,59.0,-100.00,WNW,285,2.0,2.0,98,0.00,,,0.00,,2013-08-10 13:21:00,
2013-08-10 14:02:00,62.0,61.0,-100.00,WNW,290,4.0,5.0,91,0.00,,,0.00,,2013-08-10 14:02:00,
2013-08-10 14:12:00,63.0,61.0,-100.00,West,280,4.0,5.0,88,0.00,,,0.00,,2013-08-10 14:12:00,
2013-08-10 14:22:00,64.0,61.0,-100.00,WNW,285,3.0,5.0,87,0.00,,,0.00,,2013-08-10 14:22:00,
2013-08-10 14:43:00,65.0,59.0,-100.00,NNW,345,4.0,5.0,81,0.00,,,0.00,,2013-08-10 14:43:00,
2013-08-10 15:02:00,67.0,61.0,-100.00,WSW,240,2.0,4.0,80,0.00,,,0.00,,2013-08-10 15:02:00,
2013-08-10 15:11:00,68.0,59.0,-100.00,West,275,4.0,5.0,71,0.00,,,0.00,,2013-08-10 15:11:00,
2013-08-10 16:11:00,71.0,63.0,-100.00,WSW,245,3.0,4.0,72,0.00,,,0.00,,2013-08-10 16:11:00,
2013-08-10 17:12:00,73.0,63.0,-100.00,South,180,4.0,7.0,69,0.00,,,0.00,,2013-08-10 17:12:00,
2013-08-10 17:33:00,73.0,64.0,-100.00,West,270,5.0,9.0,72,0.00,,,0.00,,2013-08-10 17:33:00,
2013-08-10 18:01:00,74.0,61.0,-100.00,SW,215,4.0,11.0,62,0.00,,,0.00,,2013-08-10 18:01:00,
2013-08-10 18:11:00,75.0,63.0,-100.00,WSW,250,4.0,7.0,65,0.00,,,0.00,,2013-08-10 18:11:00,
2013-08-10 19:02:00,76.0,64.0,-100.00,SSW,205,4.0,9.0,64,0.00,,,0.00,,2013-08-10 19:02:00,
2013-08-10 19:11:00,75.0,63.0,-100.00,SSE,160,6.0,13.0,63,0.00,,,0.00,,2013-08-10 19:11:00,
2013-08-10 19:22:00,76.0,63.0,-100.00,SW,215,3.0,9.0,65,0.00,,,0.00,,2013-08-10 19:22:00,
2013-08-10 19:33:00,77.0,63.0,-100.00,SSW,200,6.0,9.0,62,0.00,,,0.00,,2013-08-10 19:33:00,
2013-08-10 20:11:00,77.0,64.0,-100.00,SW,225,6.0,7.0,65,0.00,,,0.00,,2013-08-10 20:11:00,
2013-08-10 21:12:00,78.0,64.0,-100.00,NW,320,0.0,6.0,62,0.00,,,0.00,,2013-08-10 21:12:00,
2013-08-10 21:32:00,78.0,64.0,-100.00,WNW,285,2.0,6.0,61,0.00,,,0.00,,2013-08-10 21:32:00,
2013-08-10 22:11:00,78.0,64.0,-100.00,NNW,330,2.0,7.0,61,0.00,,,0.00,,2013-08-10 22:11:00,
2013-08-10 22:21:00,78.0,61.0,-100.00,NNW,335,4.0,6.0,57,0.00,,,0.00,,2013-08-10 22:21:00,
2013-08-10 22:32:00,78.0,61.0,-100.00,WNW,295,3.0,6.0,55,0.00,,,0.00,,2013-08-10 22:32:00,
2013-08-10 22:52:00,77.0,64.0,-100.00,North,355,0.0,2.0,64,0.00,,,0.00,,2013-08-10 22:52:00,
2013-08-10 23:01:00,78.0,63.0,-100.00,NNE,20,2.0,3.0,58,0.00,,,0.00,,2013-08-10 23:01:00,
2013-08-10 23:22:00,75.0,61.0,-100.00,SW,215,1.0,1.0,59,0.00,,,0.00,,2013-08-10 23:22:00,
2013-08-10 23:32:00,75.0,64.0,-100.00,WNW,300,0.0,1.0,68,0.00,,,0.00,,2013-08-10 23:32:00,